Time,TemperatureF,DewpointF,PressureIn,WindDirection,WindDirectionDegrees,WindSpeedMPH,WindSpeedGustMPH,Humidity,HourlyPrecipIn,Conditions,Clouds,dailyrainin,SoftwareType,DateUTC
2015-08-29 00:02:00,55.9,53.1,30.12,South,178,2.0,4.0,90,0.00,,,0.00,meteohub,2015-08-28 23:02:00,
2015-08-29 00:07:00,55.9,53.1,30.13,South,171,1.0,4.0,90,0.00,,,0.00,meteohub,2015-08-28 23:07:00,
2015-08-29 00:17:00,56.1,53.2,30.12,South,183,2.0,2.0,90,0.00,,,0.00,meteohub,2015-08-28 23:17:00,
2015-08-29 00:22:00,56.1,53.2,30.13,South,183,1.0,2.0,90,0.00,,,0.00,meteohub,2015-08-28 23:22:00,
2015-08-29 00:32:00,55.9,53.4,30.13,South,183,2.0,2.0,91,0.00,,,0.00,meteohub,2015-08-28 23:32:00,
2015-08-29 00:37:00,55.9,53.4,30.12,SSW,206,2.0,3.0,91,0.00,,,0.00,meteohub,2015-08-28 23:37:00,
2015-08-29 00:42:00,55.9,53.4,30.12,South,190,2.0,3.0,91,0.00,,,0.00,meteohub,2015-08-28 23:42:00,
2015-08-29 00:47:00,55.9,53.4,30.12,SSE,155,3.0,3.0,91,0.00,,,0.00,meteohub,2015-08-28 23:47:00,
2015-08-29 00:52:00,56.1,53.6,30.13,SSW,199,3.0,4.0,91,0.00,,,0.00,meteohub,2015-08-28 23:52:00,
2015-08-29 00:57:00,56.1,53.6,30.13,SW,226,1.0,4.0,91,0.00,,,0.00,meteohub,2015-08-28 23:57:00,
2015-08-29 01:02:00,55.9,53.4,30.13,South,175,2.0,4.0,91,0.00,,,0.00,meteohub,2015-08-29 00:02:00,
2015-08-29 01:07:00,55.9,53.4,30.12,SSW,192,0.0,4.0,91,0.00,,,0.00,meteohub,2015-08-29 00:07:00,
2015-08-29 01:17:00,56.1,53.8,30.11,SW,219,1.0,4.0,92,0.00,,,0.00,meteohub,2015-08-29 00:17:00,
2015-08-29 01:22:00,56.1,53.8,30.12,SW,219,1.0,4.0,92,0.00,,,0.00,meteohub,2015-08-29 00:22:00,
2015-08-29 01:27:00,56.3,54.0,30.12,SSW,212,2.0,4.0,92,0.00,,,0.00,meteohub,2015-08-29 00:27:00,
2015-08-29 01:32:00,56.3,54.0,30.12,SW,217,2.0,4.0,92,0.00,,,0.00,meteohub,2015-08-29 00:32:00,
2015-08-29 01:37:00,56.3,54.0,30.12,SSW,196,1.0,3.0,92,0.00,,,0.00,meteohub,2015-08-29 00:37:00,
2015-08-29 01:42:00,56.3,54.0,30.11,SSE,159,1.0,3.0,92,0.00,,,0.00,meteohub,2015-08-29 00:42:00,
2015-08-29 01:52:00,56.1,53.8,30.11,South,176,1.0,4.0,92,0.00,,,0.00,meteohub,2015-08-29 00:52:00,
2015-08-29 02:02:00,56.1,53.8,30.11,South,176,1.0,2.0,92,0.00,,,0.00,meteohub,2015-08-29 01:02:00,
2015-08-29 02:07:00,56.1,53.8,30.12,South,176,0.0,2.0,92,0.00,,,0.00,meteohub,2015-08-29 01:07:00,
2015-08-29 02:17:00,56.1,53.8,30.11,South,176,0.0,2.0,92,0.00,,,0.00,meteohub,2015-08-29 01:17:00,
2015-08-29 02:27:00,55.9,53.6,30.12,South,176,1.0,0.0,92,0.00,,,0.00,meteohub,2015-08-29 01:27:00,
2015-08-29 02:32:00,55.8,53.8,30.12,South,176,0.0,1.0,93,0.00,,,0.00,meteohub,2015-08-29 01:32:00,
2015-08-29 02:42:00,55.8,53.8,30.11,South,176,1.0,1.0,93,0.00,,,0.00,meteohub,2015-08-29 01:42:00,
2015-08-29 02:47:00,55.8,53.8,30.11,SSW,196,1.0,2.0,93,0.00,,,0.00,meteohub,2015-08-29 01:47:00,
2015-08-29 02:52:00,55.8,53.8,30.12,South,190,1.0,3.0,93,0.00,,,0.00,meteohub,2015-08-29 01:52:00,
2015-08-29 02:57:00,55.9,54.0,30.12,SW,217,3.0,3.0,93,0.00,,,0.00,meteohub,2015-08-29 01:57:00,
2015-08-29 03:02:00,55.9,54.0,30.12,South,180,1.0,3.0,93,0.00,,,0.00,meteohub,2015-08-29 02:02:00,
2015-08-29 03:12:00,55.9,54.0,30.12,South,188,0.0,3.0,93,0.00,,,0.00,meteohub,2015-08-29 02:12:00,
2015-08-29 03:22:00,55.9,54.3,30.12,South,188,1.0,2.0,94,0.00,,,0.00,meteohub,2015-08-29 02:22:00,
2015-08-29 03:32:00,55.9,54.3,30.12,South,188,0.0,2.0,94,0.00,,,0.00,meteohub,2015-08-29 02:32:00,
2015-08-29 03:37:00,55.9,54.3,30.12,South,188,0.0,2.0,94,0.00,,,0.00,meteohub,2015-08-29 02:37:00,
2015-08-29 03:42:00,55.9,54.3,30.12,South,188,0.0,2.0,94,0.00,,,0.00,meteohub,2015-08-29 02:42:00,
2015-08-29 03:47:00,55.9,54.0,30.12,South,188,0.0,1.0,93,0.00,,,0.00,meteohub,2015-08-29 02:47:00,
2015-08-29 03:52:00,55.9,54.3,30.12,South,188,0.0,1.0,94,0.00,,,0.00,meteohub,2015-08-29 02:52:00,
2015-08-29 03:57:00,55.8,54.1,30.12,South,188,0.0,1.0,94,0.00,,,0.00,meteohub,2015-08-29 02:57:00,
2015-08-29 04:07:00,55.8,54.1,30.12,South,188,0.0,1.0,94,0.00,,,0.00,meteohub,2015-08-29 03:07:00,
2015-08-29 04:17:00,55.8,54.1,30.12,South,188,0.0,1.0,94,0.00,,,0.00,meteohub,2015-08-29 03:17:00,
2015-08-29 04:22:00,55.8,54.1,30.12,South,188,0.0,0.0,94,0.00,,,0.00,meteohub,2015-08-29 03:22:00,
2015-08-29 04:27:00,55.6,54.0,30.12,South,188,0.0,0.0,94,0.00,,,0.00,meteohub,2015-08-29 03:27:00,
2015-08-29 04:32:00,55.6,54.0,30.12,South,188,0.0,0.0,94,0.00,,,0.00,meteohub,2015-08-29 03:32:00,
2015-08-29 04:42:00,55.4,53.8,30.12,South,188,0.0,1.0,94,0.00,,,0.00,meteohub,2015-08-29 03:42:00,
2015-08-29 04:52:00,55.2,53.6,30.12,South,188,0.0,1.0,94,0.00,,,0.00,meteohub,2015-08-29 03:52:00,
2015-08-29 04:57:00,55.2,53.8,30.12,South,188,0.0,0.0,95,0.00,,,0.00,meteohub,2015-08-29 03:57:00,
2015-08-29 05:02:00,55.0,53.4,30.12,South,188,0.0,0.0,94,0.00,,,0.00,meteohub,2015-08-29 04:02:00,
2015-08-29 05:12:00,55.0,53.6,30.13,South,188,1.0,0.0,95,0.00,,,0.00,meteohub,2015-08-29 04:12:00,
2015-08-29 05:17:00,55.2,54.1,30.12,South,188,0.0,1.0,96,0.00,,,0.00,meteohub,2015-08-29 04:17:00,
2015-08-29 05:22:00,55.2,54.1,30.13,South,188,0.0,1.0,96,0.00,,,0.00,meteohub,2015-08-29 04:22:00,
2015-08-29 05:32:00,55.2,54.1,30.12,South,188,0.0,2.0,96,0.00,,,0.00,meteohub,2015-08-29 04:32:00,
2015-08-29 05:37:00,55.6,54.5,30.12,South,186,2.0,3.0,96,0.00,,,0.00,meteohub,2015-08-29 04:37:00,
2015-08-29 05:47:00,55.9,54.9,30.12,SSW,193,1.0,4.0,96,0.00,,,0.00,meteohub,2015-08-29 04:47:00,
2015-08-29 05:52:00,55.9,54.9,30.12,SSW,213,1.0,4.0,96,0.00,,,0.00,meteohub,2015-08-29 04:52:00,
2015-08-29 05:57:00,56.1,55.0,30.12,South,189,2.0,4.0,96,0.00,,,0.00,meteohub,2015-08-29 04:57:00,
2015-08-29 06:02:00,56.1,55.0,30.12,SSW,195,0.0,4.0,96,0.00,,,0.00,meteohub,2015-08-29 05:02:00,
2015-08-29 06:07:00,56.1,54.7,30.11,SSW,202,0.0,4.0,95,0.00,,,0.00,meteohub,2015-08-29 05:07:00,
2015-08-29 06:12:00,56.1,54.7,30.12,South,180,0.0,4.0,95,0.00,,,0.00,meteohub,2015-08-29 05:12:00,
2015-08-29 06:22:00,56.1,54.7,30.13,SSW,200,1.0,3.0,95,0.00,,,0.00,meteohub,2015-08-29 05:22:00,
2015-08-29 06:27:00,56.1,54.7,30.13,SSW,200,0.0,2.0,95,0.00,,,0.00,meteohub,2015-08-29 05:27:00,
2015-08-29 06:32:00,56.1,54.5,30.13,SSW,200,0.0,2.0,94,0.00,,,0.00,meteohub,2015-08-29 05:32:00,
2015-08-29 06:37:00,55.9,54.3,30.13,SSW,200,1.0,1.0,94,0.00,,,0.00,meteohub,2015-08-29 05:37:00,
2015-08-29 06:42:00,55.8,54.1,30.12,SSW,200,0.0,1.0,94,0.00,,,0.00,meteohub,2015-08-29 05:42:00,
2015-08-29 06:47:00,55.8,54.3,30.13,SSW,200,0.0,2.0,95,0.00,,,0.00,meteohub,2015-08-29 05:47:00,
2015-08-29 06:52:00,55.8,54.3,30.12,South,188,1.0,2.0,95,0.00,,,0.00,meteohub,2015-08-29 05:52:00,
2015-08-29 07:02:00,55.9,54.9,30.13,South,186,1.0,2.0,96,0.00,,,0.00,meteohub,2015-08-29 06:02:00,
2015-08-29 07:07:00,56.1,55.0,30.13,South,186,0.0,2.0,96,0.00,,,0.00,meteohub,2015-08-29 06:07:00,
2015-08-29 07:17:00,56.5,55.0,30.13,South,186,0.0,1.0,95,0.00,,,0.00,meteohub,2015-08-29 06:17:00,
2015-08-29 07:27:00,56.5,55.0,30.13,South,189,0.0,2.0,95,0.00,,,0.00,meteohub,2015-08-29 06:27:00,
2015-08-29 07:32:00,56.7,55.2,30.14,SSW,209,0.0,2.0,95,0.00,,,0.00,meteohub,2015-08-29 06:32:00,
2015-08-29 07:42:00,56.8,55.4,30.13,SSW,207,0.0,3.0,95,0.00,,,0.00,meteohub,2015-08-29 06:42:00,
2015-08-29 07:47:00,57.0,55.6,30.13,South,190,1.0,3.0,95,0.00,,,0.00,meteohub,2015-08-29 06:47:00,
2015-08-29 07:52:00,57.4,55.9,30.14,SSW,195,0.0,2.0,95,0.00,,,0.00,meteohub,2015-08-29 06:52:00,
2015-08-29 07:57:00,57.6,55.8,30.14,SSW,204,2.0,3.0,94,0.00,,,0.00,meteohub,2015-08-29 06:57:00,
2015-08-29 08:02:00,57.7,55.9,30.14,South,186,1.0,3.0,94,0.00,,,0.00,meteohub,2015-08-29 07:02:00,
2015-08-29 08:12:00,57.9,56.1,30.14,South,186,1.0,3.0,94,0.00,,,0.00,meteohub,2015-08-29 07:12:00,
2015-08-29 08:17:00,58.3,56.5,30.14,South,176,2.0,2.0,94,0.00,,,0.00,meteohub,2015-08-29 07:17:00,
2015-08-29 08:22:00,58.6,56.7,30.14,SSW,203,3.0,3.0,93,0.00,,,0.00,meteohub,2015-08-29 07:22:00,
2015-08-29 08:32:00,59.2,56.8,30.14,South,173,0.0,5.0,92,0.00,,,0.00,meteohub,2015-08-29 07:32:00,
2015-08-29 08:37:00,59.5,57.2,30.14,SSW,199,0.0,5.0,92,0.00,,,0.00,meteohub,2015-08-29 07:37:00,
2015-08-29 08:42:00,59.9,57.6,30.14,SW,219,2.0,5.0,92,0.00,,,0.00,meteohub,2015-08-29 07:42:00,
2015-08-29 08:47:00,60.3,57.6,30.14,SW,217,0.0,3.0,91,0.00,,,0.00,meteohub,2015-08-29 07:47:00,
2015-08-29 08:52:00,60.6,57.7,30.14,SSW,202,1.0,3.0,90,0.00,,,0.00,meteohub,2015-08-29 07:52:00,
2015-08-29 08:57:00,60.8,57.6,30.14,SSE,159,2.0,3.0,89,0.00,,,0.00,meteohub,2015-08-29 07:57:00,
2015-08-29 09:02:00,61.3,58.6,30.13,SSW,203,2.0,3.0,91,0.00,,,0.00,meteohub,2015-08-29 08:02:00,
2015-08-29 09:07:00,62.1,58.8,30.14,SSW,200,1.0,3.0,89,0.00,,,0.00,meteohub,2015-08-29 08:07:00,
2015-08-29 09:12:00,63.0,58.6,30.14,South,171,1.0,4.0,86,0.00,,,0.00,meteohub,2015-08-29 08:12:00,
2015-08-29 09:17:00,63.7,59.7,30.14,SW,233,2.0,4.0,87,0.00,,,0.00,meteohub,2015-08-29 08:17:00,
2015-08-29 09:22:00,64.2,59.4,30.14,SSW,204,1.0,4.0,84,0.00,,,0.00,meteohub,2015-08-29 08:22:00,
2015-08-29 09:27:00,64.8,59.2,30.13,South,178,1.0,4.0,82,0.00,,,0.00,meteohub,2015-08-29 08:27:00,
2015-08-29 09:32:00,65.1,58.8,30.13,ENE,58,2.0,4.0,80,0.00,,,0.00,meteohub,2015-08-29 08:32:00,
2015-08-29 09:42:00,66.0,58.3,30.13,South,173,2.0,5.0,76,0.00,,,0.00,meteohub,2015-08-29 08:42:00,
2015-08-29 09:47:00,66.4,58.6,30.14,SSW,193,3.0,6.0,76,0.00,,,0.00,meteohub,2015-08-29 08:47:00,
2015-08-29 09:52:00,66.7,59.0,30.14,WSW,247,4.0,6.0,76,0.00,,,0.00,meteohub,2015-08-29 08:52:00,
2015-08-29 09:57:00,67.1,58.8,30.13,SSW,210,3.0,7.0,75,0.00,,,0.00,meteohub,2015-08-29 08:57:00,
2015-08-29 10:12:00,68.2,56.8,30.13,South,171,2.0,6.0,67,0.00,,,0.00,meteohub,2015-08-29 09:12:00,
2015-08-29 10:17:00,68.5,57.6,30.14,SSW,195,6.0,7.0,68,0.00,,,0.00,meteohub,2015-08-29 09:17:00,
2015-08-29 10:22:00,68.7,57.7,30.14,South,188,3.0,7.0,68,0.00,,,0.00,meteohub,2015-08-29 09:22:00,
2015-08-29 10:27:00,68.5,57.2,30.13,South,189,2.0,9.0,67,0.00,,,0.00,meteohub,2015-08-29 09:27:00,
2015-08-29 10:32:00,68.7,57.7,30.13,East,90,1.0,9.0,68,0.00,,,0.00,meteohub,2015-08-29 09:32:00,
2015-08-29 10:37:00,68.7,56.5,30.13,SW,233,3.0,9.0,65,0.00,,,0.00,meteohub,2015-08-29 09:37:00,
2015-08-29 10:47:00,68.7,56.5,30.13,SW,221,0.0,6.0,65,0.00,,,0.00,meteohub,2015-08-29 09:47:00,
2015-08-29 10:52:00,69.1,56.8,30.13,SSW,192,3.0,6.0,65,0.00,,,0.00,meteohub,2015-08-29 09:52:00,
2015-08-29 10:57:00,69.1,56.8,30.13,SW,223,5.0,6.0,65,0.00,,,0.00,meteohub,2015-08-29 09:57:00,
2015-08-29 11:02:00,69.6,56.8,30.13,SSW,209,6.0,7.0,64,0.00,,,0.00,meteohub,2015-08-29 10:02:00,